Preview of NWS' New Version of Forecast
This preview is not operational and should not be used for support decisions.

Regional Weather Roundup (RWR)

Issued by National Weather Service (NWS)

                            
000
ASUS45 KBOU 182110
RWRCO 

WEATHER ROUNDUP FOR COLORADO
NATIONAL WEATHER SERVICE DENVER/BOULDER CO
300 PM MDT TUE JUN 18 2019

NOTE: "FAIR" INDICATES FEW OR NO CLOUDS BELOW 12000 FEET WITH NO
SIGNIFICANT WEATHER AND/OR OBSTRUCTIONS TO VISIBILITY.

COZ001>005-013-030-031-182200-
...NORTHWEST COLORADO...
  
CITY           SKY/WX    TMP DP  RH WIND       PRES   REMARKS
CRAIG          PTSUNNY   66  48  52 S21G31    30.08F                  
HAYDEN         PTSUNNY   58  48  69 E16       30.14F THUNDER          
MEEKER         FAIR      63  49  60 E9        30.15F                  
RANGELY        MOCLDY    73  45  37 NW17G30   30.07S THUNDER          
RABBIT EARS PA NOT AVBL                                               
STEAMBOAT SPGS PTSUNNY   53  53 100 E6        30.17R                  
WALDEN         CLOUDY    57  41  54 S6        30.22S                  
$$

COZ006>008-011-182200-
...WEST CENTRAL VALLEYS...
  
CITY           SKY/WX    TMP DP  RH WIND       PRES   REMARKS
GRAND JUNCTION FAIR      73  50  44 VRB3      30.07F                  
MONTROSE       FAIR      64  49  57 SW7       30.16F                  
EAGLE          CLOUDY    60  47  61 SW17      30.21S                  
RIFLE          FAIR      66  55  67 E7        30.14F                  
DELTA          FAIR      71  50  47 SW20G26   30.10F                  
NUCLA          CLOUDY    61  46  59 SE9       30.19R THUNDER          
$$

COZ017>023-064>068-182200-
...SOUTHWEST COLORADO...
  
CITY           SKY/WX    TMP DP  RH WIND       PRES   REMARKS
DURANGO        FAIR      79  33  19 W20G37    30.13F                  
CORTEZ         FAIR      72  43  35 N20G30    30.13R                  
PAGOSA SPRINGS FAIR      55  47  73 E6        30.23F                  
TELLURIDE      RAIN      43  41  93 CALM      30.42R                  
WOLF CREEK PAS TSTM      36  30  80 S23G33    30.49F                  
$$

COZ009-010-012-014-032>034-037-058>063-182200-
...CENTRAL COLORADO...
  
CITY           SKY/WX    TMP DP  RH WIND       PRES   REMARKS
ASPEN          LGT RAIN  52  47  83 N9        30.26S                  
BUENA VISTA    PTSUNNY   61  38  41 SW15G24   30.17R                  
COPPER MTN     TSTM      39  36  87 MISG      30.42S VSB<1/4          
BERTHOUD PASS  CLOUDY    34  25  69 NW26G37   30.41S WCI  21          
COTTONWOOD PAS FAIR      54  37  54 NW14G28   30.28S THUNDER          
GUNNISON       CLOUDY    65  38  36 W16G29    30.19F                  
GRANBY         TSTM      52  46  79 W13G18    30.24S                  
KREMMLING      NOT AVBL                                               
LEADVILLE      CLOUDY    47  36  65 NW8G24    30.32R                  
MONARCH PASS   TSTM      45  34  65 MISG      30.51S                  
SALIDA         PTSUNNY   72  36  26 W10G17    30.20F                  
SUNLIGHT       NOT AVBL                                               
WILKERSON PASS CLOUDY    45  37  76 N5        30.37F                  
$$

COZ069>075-182200-
...SAN LUIS VALLEY/SANGRE DE CRISTO MOUNTAINS...
  
CITY           SKY/WX    TMP DP  RH WIND       PRES   REMARKS
ALAMOSA        PTSUNNY   62  34  35 W30G45    30.18S                  
DEL NORTE      TSTM      62  36  38 W31G40    30.24R                  
LA VETA PASS   NOT AVBL                                               
SAGUACHE       CLOUDY    55  41  58 CALM      30.22F THUNDER          
$$

COZ035-036-038>040-182200-
...NORTHERN COLORADO FRONT RANGE...
  
CITY           SKY/WX    TMP DP  RH WIND       PRES   REMARKS
DENVER INTL AP PTSUNNY   69  52  54 W7        30.03F                  
AURORA         NOT AVBL                                               
FRONT RANGE AP CLOUDY    68  54  60 S3        30.05F                  
ERIE MUNI ARPT FAIR      70  51  50 CALM      30.07F                  
BOULDER MUN AP FAIR      68  54  60 SE3       30.03F                  
CENTENNIAL     PTSUNNY   64  49  57 CALM      30.07F                  
BROOMFIELD     MOSUNNY   68  54  60 SE3       30.05F                  
FORT COLLINS     N/A     65  54  67 NW6       30.05F                  
LONGMONT       PTSUNNY   78  53  43 S3        30.03F                  
$$

COZ041-046-047-076>085-087-088-182200-
...PIKES PEAK/PALMER DIVIDE AND SOUTHERN FOOTHILLS...
  
CITY           SKY/WX    TMP DP  RH WIND       PRES   REMARKS
COLO. SPRINGS  LGT RAIN  59  53  80 NE8       30.10F                  
A. F. ACADEMY  NOT AVBL                                               
SCHRIEVER AFB  NOT AVBL                                               
CHEYENNE MTN   NOT AVBL                                               
ELLICOTT         N/A    N/A N/A N/A NE12      30.08F THUNDER          
FALCON         FAIR      56  51  81 N5        30.13F                  
FORT CARSON    HVY RAIN  57  53  86 N9        30.04F                  
LIMON          LGT RAIN  59  57  93 E8        30.06F                  
MONUMENT HILL  FAIR      55  48  76 W3        30.13F                  
CANON CITY     FAIR      75  54  46 SE18G28   30.00R                  
WALSENBURG     NOT AVBL                                               
TRINIDAD       FAIR      78  48  34 SE10      30.00F                  
$$

COZ042>045-048>051-090-091-182200-
...NORTHEAST COLORADO...
  
CITY           SKY/WX    TMP DP  RH WIND       PRES   REMARKS
GREELEY ARPT   FAIR      73  53  49 VRB5      30.02F                  
AKRON          CLOUDY    63  57  81 E6        30.04F                  
BURLINGTON     CLOUDY    70  57  63 NE8       30.01F                  
WRAY           PTSUNNY   70  55  60 CALM      30.00F                  
YUMA           MOCLDY    64  45  48 E5        30.02F                  
STERLING       LGT RAIN  63  59  88 SW5       29.99F                  
HOLYOKE        LGT RAIN  64  59  82 E3        30.01S                  
FORT MORGAN    LGT RAIN  62  56  81 E5        30.03F                  
$$

COZ086-089-092>099-182200-
...SOUTHEAST COLORADO...
  
CITY           SKY/WX    TMP DP  RH WIND       PRES   REMARKS
PUEBLO         FAIR      75  55  49 S7        30.00S                  
LA JUNTA       FAIR      78  54  43 E8        29.97F                  
LAMAR          FAIR      76  58  53 NE9G20    29.96F                  
SPRINGFIELD      N/A     73  58  59 CALM      29.98F                  
$$